Location: Ay?beleni
(36.6500°N, 30.3000°E)
Time: 12:21:52
(UTC+00:00)

Envisat - Pass Details

Date: 03 August 2021
Orbit: 764 x 766 km, 98.2° (Epoch: 22 September)

Event Time Altitude Azimuth Distance (km) Brightness Sun altitude
Rises 01:52:15 0° 37° (NE) 3,237 7.7 -13.9°
Reaches altitude 10° 01:56:04 10° 66° (ENE) 2,304 6.9 -13.2°
Maximum altitude 01:58:10 12° 91° (E) 2,131 6.2 -12.9°
Drops below altitude 10° 02:00:15 10° 116° (ESE) 2,297 5.9 -12.5°
Sets 02:04:01 0° 145° (SE) 3,216 6.3 -11.9°
